Iowa City, IA

8:06 AM CDT on August 20, 2017 (GMT -0500)
Iowa City Municipal

Weather History for KIOW - October, 2012

Change the Weather History Date:

Monday, October 1, 2012

  Actual Average Record
Temperature  
Mean Temperature 60 °F 58 °F  
Max Temperature 71 °F 70 °F 90 °F (1976)
Min Temperature 49 °F 46 °F 24 °F (1958)
Degree Days  
Heating Degree Days 5 8  
Month to date heating degree days 5 8  
Since 1 July heating degree days 144 120  
Cooling Degree Days 0 1  
Month to date cooling degree days 0 1  
Year to date cooling degree days 1257 903  
Growing Degree Days 10 (Base 50)    
Moisture  
Dew Point 45 °F    
Average Humidity 62    
Maximum Humidity 83    
Minimum Humidity 40    
Precipitation  
Precipitation 0.00 in 0.09 in 1.18 in (2004)
Month to date precipitation 0.00 0.09  
Year to date precipitation 19.79 29.63  
Sea Level Pressure  
Sea Level Pressure 29.89 in    
Wind  
Wind Speed 1 mph (ESE)    
Max Wind Speed 7 mph    
Max Gust Speed 9 mph    
Visibility 10 miles    
Events      
T = Trace of Precipitation, MM = Missing Value Source: NWS Daily Summary

Daily Weather History Graph

Daily Weather History Graph

Search for Another Location

Airport or City:

Trip Planner

Search our weather history database for the weather conditions in past years. The results will help you decide how hot, cold, wet, or windy it might be!

Date:

Astronomy

Oct. 01, 2012 Rise Set
Actual Time 7:03 AM CDT 6:47 PM CDT
Civil Twilight 6:35 AM CDT 7:14 PM CDT
Nautical Twilight 6:03 AM CDT 7:46 PM CDT
Astronomical Twilight 5:31 AM CDT 8:19 PM CDT
Moon 7:22 PM CDT (10/1) 8:35 AM CDT (10/1)
Length of Visible Light 12h 38m
Length of Day
11h 43m
Full, 98% of the Moon is Illuminated
Oct 1
Full
Oct 8
Last Quarter
Oct 15
New
Oct 21
First Quarter
Oct 29
Full

Hourly Weather History & Observations

Time (CDT) Temp. Dew Point Humidity Pressure Visibility Wind Dir Wind Speed Gust Speed Precip Events Conditions
12:52 AM 55.0 °F 42.1 °F 62% 29.93 in 10.0 mi ESE 3.5 mph - N/A   Clear
1:52 AM 53.1 °F 42.1 °F 66% 29.92 in 10.0 mi Calm Calm - N/A   Clear
2:52 AM 51.1 °F 43.0 °F 74% 29.92 in 10.0 mi Calm Calm - N/A   Clear
3:52 AM 52.0 °F 43.0 °F 71% 29.91 in 10.0 mi Calm Calm - N/A   Clear
4:52 AM 52.0 °F 42.1 °F 69% 29.91 in 10.0 mi East 3.5 mph - N/A   Clear
5:52 AM 51.1 °F 43.0 °F 74% 29.91 in 10.0 mi Calm Calm - N/A   Clear
6:52 AM 50.0 °F 43.0 °F 77% 29.91 in 10.0 mi Calm Calm - N/A   Clear
7:52 AM 51.1 °F 43.0 °F 74% 29.92 in 10.0 mi Calm Calm - N/A   Clear
8:52 AM 53.1 °F 44.1 °F 71% 29.93 in 10.0 mi Calm Calm - N/A   Clear
9:52 AM 55.9 °F 46.0 °F 69% 29.93 in 10.0 mi ESE 4.6 mph - N/A   Clear
10:52 AM 57.0 °F 46.9 °F 69% 29.91 in 10.0 mi East 3.5 mph - N/A   Clear
11:52 AM 62.1 °F 46.9 °F 58% 29.90 in 10.0 mi Calm Calm - N/A   Clear
12:52 PM 63.0 °F 46.9 °F 56% 29.89 in 10.0 mi Calm Calm - N/A   Clear
1:52 PM 64.9 °F 45.0 °F 48% 29.87 in 10.0 mi Calm Calm - N/A   Clear
2:52 PM 68.0 °F 44.1 °F 42% 29.85 in 10.0 mi Calm Calm - N/A   Clear
3:52 PM 69.1 °F 44.1 °F 40% 29.84 in 10.0 mi Variable 3.5 mph - N/A   Clear
5:52 PM 69.1 °F 44.1 °F 40% 29.83 in 10.0 mi Calm Calm - N/A   Clear
6:52 PM 64.0 °F 45.0 °F 50% 29.84 in 10.0 mi Calm Calm - N/A   Clear
7:52 PM 57.0 °F 46.9 °F 69% 29.84 in 10.0 mi Calm Calm - N/A   Clear
8:52 PM 55.0 °F 46.9 °F 74% 29.85 in 10.0 mi Calm Calm - N/A   Clear
10:52 PM 55.0 °F 48.0 °F 77% 29.87 in 10.0 mi Calm Calm - N/A   Clear